FW1483 Weather Reports


Display with metric or nautical units.
time (UTC)temp
F
wind
direction
speed
MPH
gust
MPH
rain 1hr
in
rain 24hr
in
rain mn
in
humidity
%
barometer
mb
20260510103036 47 183 0.0 0.0 0.00 0.00 0.00 92 1015.3
20260510101537 47 183 0.0 0.0 0.00 0.00 0.00 90 1015.1
20260510100031 48 245 0.0 0.0 0.00 0.00 0.00 90 1015.1
20260510094528 49 263 0.0 5.0 0.00 0.00 0.00 90 1015.0
20260510093031 49 276 0.0 0.0 0.00 0.00 0.00 90 1015.0
20260510091528 49 245 0.0 0.0 0.00 0.00 0.00 90 1014.9
20260510090028 49 245 0.0 0.0 0.00 0.00 0.00 90 1014.9
20260510084519 49 245 0.0 1.0 0.00 0.00 0.00 89 1014.6
20260510083021 49 271 0.0 1.0 0.00 0.00 0.00 89 1014.4
20260510081517 49 271 0.0 3.0 0.00 0.00 0.00 89 1014.2
20260510080016 49 246 0.0 0.0 0.00 0.00 0.00 89 1014.2
20260510074515 49 246 0.0 2.0 0.00 0.00 0.00 89 1014.0
20260510073014 49 248 0.0 4.0 0.00 0.00 0.00 88 1014.1
20260510071518 50 279 0.0 0.0 0.00 0.00 0.00 87 1014.0
20260510070010 50 279 0.0 0.0 0.00 0.00 0.00 87 1013.8
20260510064524 50 279 0.0 0.0 0.00 0.00 0.00 86 1013.9
20260510063008 51 279 0.0 0.0 0.00 0.00 0.00 85 1014.0
20260510061510 51 279 0.0 0.0 0.00 0.00 0.00 85 1014.0
20260510060001 51 279 0.0 0.0 0.00 0.00 0.00 83 1014.0
20260510054600 52 335 0.0 3.0 0.00 0.00 0.00 83 1014.0
20260510053058 52 275 0.0 2.0 0.00 0.00 0.00 82 1014.1
20260510051559 53 275 0.0 0.0 0.00 0.00 0.00 80 1014.2
20260510050052 53 275 0.0 0.0 0.00 0.00 0.00 80 1014.0
20260510044550 54 275 0.0 0.0 0.00 0.00 0.00 78 1014.2
20260510043047 55 275 0.0 0.0 0.00 0.00 0.00 77 1014.3
20260510041542 57 275 0.0 0.0 0.00 0.00 0.00 75 1013.9
20260510040038 57 277 0.0 0.0 0.00 0.00 0.00 74 1014.0
20260510034538 57 284 0.0 0.0 0.00 0.00 0.00 74 1014.1
20260510033045 57 286 0.0 0.0 0.00 0.00 0.00 73 1014.1
20260510031536 57 342 0.0 4.0 0.00 0.00 0.00 74 1013.9
20260510030036 57 274 0.0 2.0 0.00 0.00 0.00 73 1014.0
20260510024536 58 256 1.0 3.0 0.00 0.00 0.00 71 1014.0
20260510023035 59 276 0.0 0.0 0.00 0.00 0.00 70 1013.9
20260510021536 59 256 0.0 2.0 0.00 0.00 0.00 70 1013.6
20260510020034 61 336 0.0 3.0 0.00 0.00 0.00 67 1013.4
20260510014533 60 341 1.0 3.0 0.00 0.00 0.00 66 1013.0
20260510013034 61 242 2.0 3.0 0.00 0.00 0.00 67 1012.7
20260510011532 62 224 0.0 2.0 0.00 0.00 0.00 64 1012.4
20260510010032 63 161 0.0 2.0 0.00 0.00 0.00 62 1012.3
20260510004531 64 175 0.0 3.0 0.00 0.00 0.00 59 1012.3
20260510003032 66 331 0.0 3.0 0.00 0.00 0.00 57 1012.2
20260510001530 66 189 1.0 3.0 0.00 0.00 0.00 57 1012.1
20260510000036 67 324 1.0 5.0 0.00 0.00 0.00 55 1011.6
20260509234540 68 19 0.0 4.0 0.00 0.00 0.00 56 1011.4
20260509233029 69 12 2.0 8.0 0.00 0.00 0.00 54 1011.3
20260509231528 70 329 1.0 4.0 0.00 0.00 0.00 53 1011.1
20260509230029 71 17 1.0 8.0 0.00 0.00 0.00 53 1011.0
20260509224540 72 109 1.0 4.0 0.00 0.00 0.00 49 1011.0
20260509223027 73 5 1.0 8.0 0.00 0.00 0.00 49 1010.9
20260509221528 73 351 2.0 8.0 0.00 0.00 0.00 48 1010.8
20260509220027 73 5 2.0 8.0 0.00 0.00 0.00 48 1010.7
20260509214524 73 267 3.0 11.0 0.00 0.00 0.00 47 1010.7
20260509213023 74 319 3.0 7.0 0.00 0.00 0.00 48 1010.4
20260509211522 75 211 0.0 9.0 0.00 0.00 0.00 45 1010.3
20260509210022 75 213 0.0 5.0 0.00 0.00 0.00 47 1010.3
20260509204623 75 194 3.0 7.0 0.00 0.00 0.00 45 1010.3
20260509203020 74 355 1.0 3.0 0.00 0.00 0.00 49 1010.1
20260509201518 74 322 1.0 5.0 0.00 0.00 0.00 48 1010.1
20260509200019 75 140 0.0 10.0 0.00 0.00 0.00 47 1010.1
20260509194521 76 15 1.0 13.0 0.00 0.00 0.00 45 1010.1
20260509193016 76 295 3.0 7.0 0.00 0.00 0.00 46 1010.1
20260509191510 73 181 3.0 9.0 0.00 0.00 0.00 48 1010.2
20260509190011 73 165 4.0 10.0 0.00 0.00 0.00 50 1010.5
20260509184518 74 201 5.0 8.0 0.00 0.00 0.00 48 1010.5
20260509183007 73 177 2.0 10.0 0.00 0.00 0.00 49 1010.5
20260509181506 73 165 4.0 16.0 0.00 0.00 0.00 49 1010.9
20260509180004 73 223 5.0 16.0 0.00 0.00 0.00 49 1010.9
20260509174501 73 159 3.0 11.0 0.00 0.00 0.00 47 1010.9
20260509173111 73 194 2.0 11.0 0.00 0.00 0.00 49 1011.0
20260509171557 72 182 3.0 11.0 0.00 0.00 0.00 54 1011.3
20260509170054 72 165 8.0 17.0 0.00 0.00 0.00 51 1011.5
20260509164548 70 96 2.0 7.0 0.00 0.00 0.00 60 1011.9
20260509163044 68 295 2.0 4.0 0.00 0.00 0.00 66 1012.2
20260509161550 67 158 1.0 4.0 0.00 0.00 0.00 66 1012.2
20260509160040 66 136 3.0 9.0 0.00 0.00 0.00 66 1012.1
20260509154538 67 165 2.0 7.0 0.00 0.00 0.00 66 1011.9
20260509153034 65 133 4.0 10.0 0.00 0.00 0.00 66 1012.4
20260509151532 65 96 4.0 7.0 0.00 0.00 0.00 67 1012.5
20260509150029 65 151 2.0 8.0 0.00 0.00 0.00 68 1012.5
20260509144529 64 139 1.0 4.0 0.00 0.00 0.00 69 1012.6
20260509143027 63 270 1.0 5.0 0.00 0.00 0.00 70 1012.8
20260509141537 64 269 2.0 7.0 0.00 0.00 0.00 69 1012.7
20260509140022 62 190 4.0 7.0 0.00 0.00 0.00 72 1012.6
20260509134527 60 142 3.0 6.0 0.00 0.00 0.00 75 1012.5
20260509133013 57 143 3.0 5.0 0.00 0.00 0.00 79 1012.8
20260509131508 55 165 3.0 5.0 0.00 0.00 0.00 82 1013.5
20260509130004 53 110 0.0 0.0 0.00 0.00 0.00 85 1013.5
20260509124600 51 110 0.0 1.0 0.00 0.00 0.00 85 1013.9
20260509123057 49 110 0.0 3.0 0.00 0.00 0.00 86 1013.9
20260509121554 48 178 1.0 2.0 0.00 0.00 0.00 87 1013.9
20260509120052 49 253 0.0 0.0 0.00 0.00 0.00 88 1013.9
20260509114545 48 253 0.0 0.0 0.00 0.00 0.00 88 1013.9
20260509113043 47 253 0.0 0.0 0.00 0.00 0.00 90 1013.9
20260509111539 46 253 0.0 0.0 0.00 0.00 0.00 90 1013.9
20260509110037 44 225 0.0 0.0 0.00 0.00 0.00 91 1013.7
20260509104548 43 225 0.0 0.0 0.00 0.00 0.00 89 1013.7